Flag for Japan Weather past 2 weeks in Suzuka, Japan

Now
73 °F

Mild.


Feels Like: 69 °F
Forecast: 73 / 80 °F
Wind: 2 mph from Northeast

Location: Tsu

Current Time: Aug 30, 2015 at 2:44:02 AM

Latest Report: Aug 30, 2015 at 2:00 AM


Visibility: N/A

Pressure: 29.84 "Hg

Humidity: 95%

Dew point: 72 °F

Location of SuzukaLocation

Historic Weather in Suzuka — Graph

°F

Suzuka temperature yesterday

Maximum temperature yesterday: 79 °F (at 3:00 PM)
Minimum temperature yesterday: 73 °F (at 10:00 PM)
Average temperature yesterday: 75 °F

Past Weeks' High & Low Weather Summary

 TemperatureHumidityPressure
High91 °F (Aug 22, 12:00 PM)96% (Aug 20, 7:00 AM)29.96 "Hg (Aug 20, 7:00 AM)
Low71 °F (Aug 25, 10:00 PM)45% (Aug 23, 3:00 PM)29.54 "Hg (Aug 25, 8:00 PM)
Average80 °F77%29.76 "Hg
* Reported Aug 15 1:00 AM — Aug 30 1:00 AM, Suzuka, Weather by CustomWeather, © 2015

Note: Actual official high and low records may vary slightly from our data, if they occured in-between our weather recording intervals... More about our weather records

Advertising

Suzuka weather history for previous 24 hours

 ConditionsComfort  
Time TempWeatherWind HumidityBarometerVisibility
1:00 AM
Sun, Aug 30
74 °FMild.1 mph93%29.85 "HgN/A
12:00 AM73 °FMild.2 mph92%29.85 "HgN/A
11:00 PM
Sat, Aug 29
73 °FMild.5 mph92%29.87 "HgN/A
10:00 PM73 °FMild.5 mph92%29.86 "HgN/A
9:00 PM73 °FOvercast.5 mph92%29.87 "Hg5 mi
8:00 PM73 °FMild.8 mph93%29.86 "HgN/A
7:00 PM74 °FMild.1 mph93%29.86 "HgN/A
6:00 PM78 °FWarm.7 mph84%29.85 "HgN/A
5:00 PM78 °FWarm.6 mph83%29.85 "HgN/A
4:00 PM78 °FWarm.6 mph78%29.84 "HgN/A
3:00 PM79 °FOvercast.6 mph76%29.85 "Hg9 mi
2:00 PM79 °FWarm.7 mph76%29.86 "HgN/A
12:00 PM79 °FWarm.3 mph75%29.88 "HgN/A
11:00 AM75 °FMild.5 mph84%29.89 "HgN/A
10:00 AM74 °FMild.3 mph88%29.89 "HgN/A
9:00 AM74 °FOvercast.5 mph89%29.89 "Hg6 mi
8:00 AM73 °FMild.7 mph90%29.87 "HgN/A
5:00 AM74 °FMild.5 mph95%29.84 "HgN/A
4:00 AM74 °FMild.5 mph96%29.85 "HgN/A
3:00 AM74 °FMild.3 mph96%29.85 "HgN/A
2:00 AM74 °FMild.5 mph95%29.85 "HgN/A
Weather by CustomWeather, © 2015

See weather overviewHow to use our weather pages